{"data":{"norad_id":63741,"intl_designator":"2025-088T","name":"KUIPER-00028","alt_names":[],"object_type":"PAYLOAD","status":"ACTIVE","operator":null,"country":"US","launch_date":"2025-04-28","launch_site_code":"AFETR","launch_vehicle":null,"mission":null,"orbit_class":"UNKNOWN","rcs_meters":null,"size_class":null,"mass_kg":null,"dimensions":null,"purposes":[],"wikipedia_slug":null,"has_3d_model":false,"image_url":null,"decayed_at":null,"tle_current":{"epoch":"2026-05-25T04:59:47.137344Z","epoch_age_seconds":57375,"freshness":"FRESH","line1":"1 63741U 25088T   26145.20818446  .00001151  00000+0  17996-3 0  9997","line2":"2 63741  51.8997 114.6854 0000678  66.5915 293.5119 14.79944818 59395","mean_motion":14.79944818,"eccentricity":6.78e-5,"inclination_deg":51.8997,"raan_deg":114.6854,"arg_perigee_deg":66.5915,"mean_anomaly_deg":293.5119,"bstar":0.00017996,"rev_number":5939,"period_min":97.300925175441,"perigee_km":629.02320525086,"apogee_km":629.97344060065,"semimajor_km":7007.6353229258,"source":"CELESTRAK","updated_at":"2026-05-25T13:38:03.929107Z"}}}